Location: S�o Paulo
(23.5330°S, 46.6170°W)
Time: 05:45:27
(UTC-02:00)

ISS - Visible Passes

Search period start: 17 October 2017 00:00
Search period end: 27 October 2017 00:00
Orbit: 401 x 408 km, 51.6° (Epoch: 18 October)

Date Brightness Start Highest point End Pass type
(mag) Time Alt. Az. Time Alt. Az. Time Alt. Az.
21 Oct -1.0 05:33:23 10° S 05:35:58 20° SE 05:38:30 10° E visible
21 Oct -3.2 20:29:16 10° NNW 20:31:46 40° NNE 20:31:46 40° NNE visible
22 Oct -0.2 04:43:01 10° SSE 04:43:27 10° SE 04:43:55 10° SE visible
22 Oct -2.3 19:37:47 10° N 19:40:14 19° NE 19:42:42 10° ESE visible
22 Oct -1.2 21:14:05 10° W 21:16:35 20° SW 21:17:11 19° SSW visible
23 Oct -3.4 05:24:30 10° SW 05:27:47 66° SE 05:31:02 10° NE visible
23 Oct -2.6 20:20:59 10° WNW 20:24:09 43° SW 20:27:22 10° SSE visible
24 Oct -1.6 04:34:24 22° SSE 04:35:24 26° SE 04:38:14 10° ENE visible
25 Oct -3.0 05:19:39 31° NW 05:19:39 31° NW 05:22:21 10° NNE visible
25 Oct -0.7 20:13:53 10° W 20:15:58 15° SW 20:18:03 10° S visible
